{"data":{"norad_id":62749,"intl_designator":"2025-014Q","name":"STARLINK-32761","alt_names":[],"object_type":"PAYLOAD","status":"ACTIVE","operator":null,"country":"US","launch_date":"2025-01-21","launch_site_code":"AFETR","launch_vehicle":null,"mission":null,"orbit_class":"UNKNOWN","rcs_meters":null,"size_class":null,"mass_kg":null,"dimensions":null,"purposes":["comms"],"wikipedia_slug":null,"has_3d_model":false,"image_url":null,"decayed_at":null,"tle_current":{"epoch":"2026-05-25T03:42:55.001664Z","epoch_age_seconds":72151,"freshness":"FRESH","line1":"1 62749U 25014Q   26145.15480326  .00017442  00000+0  64158-3 0  9991","line2":"2 62749  43.0031  85.8502 0001324 260.5890  99.4812 15.27593810 74914","mean_motion":15.2759381,"eccentricity":0.0001324,"inclination_deg":43.0031,"raan_deg":85.8502,"arg_perigee_deg":260.589,"mean_anomaly_deg":99.4812,"bstar":0.00064158,"rev_number":7491,"period_min":94.265896508182,"perigee_km":482.09932867893,"apogee_km":483.9161598072,"semimajor_km":6861.1447442431,"source":"CELESTRAK","updated_at":"2026-05-25T13:38:19.741120Z"}}}